Dutch Harbor, AK

7:27 AM AKDT on July 26, 2017 (GMT -0800)
Unalaska

Weather History for PADU - October, 2012

Change the Weather History Date:

Friday, October 19, 2012

  Actual Average Record
Temperature  
Mean Temperature 40 °F -  
Max Temperature 43 °F 46 °F 57 °F (1989)
Min Temperature 37 °F 36 °F 21 °F (1991)
Degree Days  
Heating Degree Days 25    
Moisture  
Dew Point 31 °F    
Average Humidity 70    
Maximum Humidity 81    
Minimum Humidity 60    
Precipitation  
Precipitation 0.00 in - - ()
Sea Level Pressure  
Sea Level Pressure 30.58 in    
Wind  
Wind Speed 9 mph (WNW)    
Max Wind Speed 15 mph    
Max Gust Speed 20 mph    
Visibility 10 miles    
Events Rain    
Averages and records for this station are not official NWS values.
T = Trace of Precipitation, MM = Missing Value Source: NWS Daily Summary

Daily Weather History Graph

Daily Weather History Graph

Search for Another Location

Airport or City:

Trip Planner

Search our weather history database for the weather conditions in past years. The results will help you decide how hot, cold, wet, or windy it might be!

Date:

Astronomy

Oct. 19, 2012 Rise Set
Actual Time 9:42 AM AKDT 7:58 PM AKDT
Civil Twilight 9:06 AM AKDT 8:34 PM AKDT
Nautical Twilight 8:25 AM AKDT 9:15 PM AKDT
Astronomical Twilight 7:44 AM AKDT 9:55 PM AKDT
Moon 3:09 PM AKDT (10/19) 11:20 PM AKDT (10/19)
Length of Visible Light 11h 27m
Length of Day
10h 15m
Waxing Crescent, 25% of the Moon is Illuminated
Oct 19
Waxing Crescent
Oct 21
First Quarter
Oct 29
Full
Nov 6
Last Quarter
Nov 13
New

Hourly Weather History & Observations

Time (AKDT) Temp. Windchill Dew Point Humidity Pressure Visibility Wind Dir Wind Speed Gust Speed Precip Events Conditions
12:27 AM 39.2 °F 31.6 °F 30.2 °F 70% 30.51 in 10.0 mi WNW 12.7 mph - 0.00 in   Overcast
12:56 AM 37.9 °F 30.0 °F 30.9 °F 76% 30.53 in 10.0 mi NW 12.7 mph - 0.00 in Rain Light Rain
1:56 AM 39.9 °F 31.8 °F 27.0 °F 60% 30.53 in 10.0 mi NNW 15.0 mph 19.6 mph 0.00 in   Overcast
2:56 AM 39.0 °F 31.8 °F 28.9 °F 67% 30.53 in 10.0 mi NNW 11.5 mph - N/A   Overcast
3:56 AM 39.9 °F 33.4 °F 28.9 °F 65% 30.54 in 10.0 mi NW 10.4 mph - N/A   Overcast
4:56 AM 39.9 °F 32.9 °F 30.9 °F 70% 30.55 in 10.0 mi NNW 11.5 mph - N/A   Overcast
5:56 AM 39.9 °F 33.9 °F 30.0 °F 68% 30.56 in 10.0 mi NW 9.2 mph - 0.00 in   Overcast
6:22 AM 39.2 °F 34.2 °F 30.2 °F 70% 30.54 in 10.0 mi WNW 6.9 mph - N/A   Overcast
6:56 AM 39.9 °F 35.8 °F 28.9 °F 65% 30.56 in 10.0 mi North 5.8 mph - N/A   Overcast
7:56 AM 39.9 °F 35.1 °F 28.9 °F 65% 30.57 in 10.0 mi WNW 6.9 mph - N/A   Overcast
8:56 AM 41.0 °F 35.2 °F 28.9 °F 62% 30.58 in 10.0 mi NW 9.2 mph - N/A   Overcast
11:56 AM 41.0 °F 37.1 °F 30.9 °F 67% 30.61 in 10.0 mi WSW 5.8 mph - N/A   Overcast
12:56 PM 39.9 °F 35.1 °F 32.0 °F 73% 30.61 in 10.0 mi SSW 6.9 mph - N/A   Overcast
1:05 PM 41.0 °F 37.1 °F 32.0 °F 70% 30.60 in 10.0 mi SW 5.8 mph - N/A   Overcast
1:56 PM 39.9 °F 35.1 °F 33.1 °F 77% 30.62 in 10.0 mi NNW 6.9 mph - N/A   Overcast
1:57 PM 39.2 °F 35.0 °F 33.8 °F 81% 30.60 in 10.0 mi NNW 5.8 mph - N/A   Overcast
2:56 PM 41.0 °F - 33.1 °F 73% 30.61 in 10.0 mi Calm Calm - N/A   Overcast
4:56 PM 43.0 °F - 30.9 °F 62% 30.59 in 10.0 mi Calm Calm - N/A   Overcast
5:56 PM 43.0 °F 39.5 °F 30.9 °F 62% 30.59 in 10.0 mi NW 5.8 mph - N/A   Overcast
6:56 PM 43.0 °F 40.3 °F 33.1 °F 68% 30.59 in 10.0 mi SW 4.6 mph - N/A   Mostly Cloudy
7:56 PM 42.1 °F - 34.0 °F 73% 30.60 in 10.0 mi Calm Calm - N/A   Overcast
8:56 PM 42.1 °F 38.4 °F 33.1 °F 70% 30.61 in 10.0 mi NW 5.8 mph - 0.00 in Rain Light Rain
9:56 PM 41.0 °F 39.0 °F 34.0 °F 76% 30.61 in 10.0 mi South 3.5 mph - 0.00 in   Overcast
10:56 PM 39.9 °F 37.8 °F 33.1 °F 77% 30.62 in 10.0 mi NW 3.5 mph - 0.00 in Rain Light Rain
11:56 PM 39.0 °F - 33.1 °F 79% 30.62 in 10.0 mi Calm Calm - 0.00 in Rain Light Rain